• In Portugal
  • List of Countries
  • For 7 days
  • Water Temperature
  • Satellite Maps
  • Weather Map
  • Weather Widgets
  • user-avatar
    Login

    Hourly Weather Sankt Polten

    Today, 14 August, Tuesday

    Time Temperature Precipitation Wind Pressure Humidity
    00:00 +20°C° 0.5 mm 3 mps 732 mmHg 91%
    01:00 +19°C° 0 mm 3 mps 732 mmHg 91%
    02:00 +19°C° 0 mm 2 mps 732 mmHg 92%
    03:00 +18°C° 0 mm 2 mps 732 mmHg 93%
    04:00 +18°C° 0 mm 2 mps 732 mmHg 94%
    05:00 +19°C° 0 mm 2 mps 733 mmHg 92%
    06:00 +19°C° 0 mm 2 mps 733 mmHg 89%
    07:00 +20°C° 0 mm 2 mps 733 mmHg 87%
    08:00 +21°C° 0.3 mm 2 mps 734 mmHg 84%
    09:00 +21°C° 0.3 mm 3 mps 734 mmHg 81%
    10:00 +22°C° 0.3 mm 3 mps 734 mmHg 78%
    11:00 +22°C° 0.7 mm 3 mps 734 mmHg 79%
    12:00 +23°C° 0.7 mm 2 mps 734 mmHg 79%
    13:00 +23°C° 0.7 mm 2 mps 734 mmHg 79%
    14:00 +23°C° 0.6 mm 2 mps 734 mmHg 81%
    15:00 +21°C° 0.6 mm 2 mps 735 mmHg 82%
    16:00 +21°C° 0.6 mm 2 mps 735 mmHg 84%
    17:00 +21°C° 0.4 mm 2 mps 735 mmHg 85%
    18:00 +20°C° 0.4 mm 2 mps 735 mmHg 87%
    19:00 +19°C° 0.4 mm 2 mps 735 mmHg 89%
    20:00 +19°C° 0.1 mm 2 mps 735 mmHg 89%
    21:00 +19°C° 0.1 mm 2 mps 736 mmHg 90%
    22:00 +18°C° 0.1 mm 3 mps 736 mmHg 90%
    23:00 +18°C° 0 mm 3 mps 736 mmHg 90%

    Tomorrow, 15 August, Wednesday

    Time Temperature Precipitation Wind Pressure Humidity
    00:00 +17°C° 0 mm 2 mps 736 mmHg 90%
    01:00 +17°C° 0 mm 2 mps 736 mmHg 90%
    02:00 +17°C° 0 mm 2 mps 737 mmHg 91%
    03:00 +16°C° 0 mm 2 mps 737 mmHg 92%
    04:00 +16°C° 0 mm 2 mps 737 mmHg 92%
    05:00 +17°C° 0 mm 2 mps 737 mmHg 90%
    06:00 +18°C° 0 mm 2 mps 737 mmHg 87%
    07:00 +19°C° 0 mm 3 mps 738 mmHg 85%
    08:00 +20°C° 0 mm 3 mps 738 mmHg 77%
    09:00 +22°C° 0 mm 3 mps 738 mmHg 70%
    10:00 +24°C° 0 mm 3 mps 738 mmHg 62%
    11:00 +25°C° 0 mm 3 mps 738 mmHg 58%
    12:00 +26°C° 0 mm 3 mps 738 mmHg 54%
    13:00 +27°C° 0 mm 3 mps 738 mmHg 51%
    14:00 +27°C° 0 mm 3 mps 738 mmHg 51%
    15:00 +27°C° 0 mm 3 mps 738 mmHg 52%
    16:00 +27°C° 0 mm 3 mps 737 mmHg 53%
    17:00 +25°C° 0 mm 2 mps 738 mmHg 61%
    18:00 +23°C° 0 mm 1 mps 738 mmHg 69%
    19:00 +22°C° 0 mm 1 mps 738 mmHg 76%
    20:00 +21°C° 0 mm 1 mps 738 mmHg 79%
    21:00 +20°C° 0 mm 1 mps 738 mmHg 81%
    22:00 +19°C° 0 mm 1 mps 739 mmHg 84%
    23:00 +19°C° 0 mm 1 mps 739 mmHg 85%

    Day after tomorrow, 16 August, Thursday

    Time Temperature Precipitation Wind Pressure Humidity
    00:00 +18°C° 0 mm 1 mps 738 mmHg 86%
    01:00 +18°C° 0 mm 1 mps 738 mmHg 87%
    02:00 +18°C° 0 mm 1 mps 738 mmHg 88%
    03:00 +18°C° 0 mm 1 mps 738 mmHg 88%
    04:00 +16°C° 0 mm 1 mps 738 mmHg 89%
    05:00 +18°C° 0 mm 1 mps 738 mmHg 85%
    06:00 +18°C° 0 mm 0 mps 738 mmHg 81%
    07:00 +19°C° 0 mm 0 mps 739 mmHg 77%
    08:00 +23°C° 0 mm 1 mps 738 mmHg 69%
    09:00 +25°C° 0 mm 1 mps 738 mmHg 62%
    10:00 +27°C° 0 mm 1 mps 738 mmHg 54%
    11:00 +27°C° 0 mm 1 mps 738 mmHg 52%
    12:00 +28°C° 0 mm 2 mps 738 mmHg 51%
    13:00 +28°C° 0 mm 2 mps 737 mmHg 49%
    14:00 +28°C° 0 mm 2 mps 737 mmHg 49%
    15:00 +28°C° 0 mm 2 mps 737 mmHg 48%
    16:00 +28°C° 0 mm 2 mps 736 mmHg 48%
    17:00 +26°C° 0 mm 2 mps 736 mmHg 56%
    18:00 +24°C° 0 mm 1 mps 736 mmHg 63%
    19:00 +22°C° 0 mm 1 mps 736 mmHg 71%
    20:00 +21°C° 0 mm 1 mps 736 mmHg 72%
    21:00 +21°C° 0 mm 1 mps 736 mmHg 74%
    22:00 +20°C° 0 mm 1 mps 736 mmHg 76%
    23:00 +19°C° 0 mm 1 mps 736 mmHg 78%

    17 August, Friday

    Time Temperature Precipitation Wind Pressure Humidity
    00:00 +19°C° 0 mm 1 mps 736 mmHg 80%
    01:00 +19°C° 0 mm 1 mps 736 mmHg 83%
    02:00 +18°C° 0 mm 1 mps 736 mmHg 84%
    03:00 +18°C° 0 mm 1 mps 736 mmHg 86%
    04:00 +18°C° 0 mm 1 mps 736 mmHg 88%
    05:00 +19°C° 0 mm 1 mps 736 mmHg 84%
    06:00 +18°C° 0 mm 0 mps 736 mmHg 80%
    07:00 +20°C° 0 mm 0 mps 736 mmHg 76%
    08:00 +22°C° 0 mm 0 mps 736 mmHg 68%
    09:00 +26°C° 0 mm 1 mps 736 mmHg 61%
    10:00 +28°C° 0 mm 1 mps 736 mmHg 53%
    11:00 +29°C° 0 mm 1 mps 736 mmHg 50%
    12:00 +30°C° 0 mm 1 mps 736 mmHg 47%
    13:00 +31°C° 0 mm 1 mps 735 mmHg 44%
    14:00 +31°C° 0 mm 1 mps 735 mmHg 45%
    15:00 +31°C° 0 mm 1 mps 735 mmHg 46%
    16:00 +30°C° 0 mm 1 mps 735 mmHg 47%
    17:00 +28°C° 0.2 mm 1 mps 735 mmHg 55%
    18:00 +26°C° 0.2 mm 1 mps 735 mmHg 63%
    19:00 +24°C° 0.2 mm 1 mps 735 mmHg 72%
    20:00 +23°C° 0.3 mm 1 mps 736 mmHg 76%
    21:00 +23°C° 0.3 mm 2 mps 736 mmHg 79%
    22:00 +21°C° 0.3 mm 2 mps 737 mmHg 83%
    23:00 +21°C° 0.2 mm 2 mps 737 mmHg 84%

    18 August, Saturday

    Time Temperature Precipitation Wind Pressure Humidity
    00:00 +20°C° 0.2 mm 3 mps 737 mmHg 86%
    01:00 +20°C° 0.2 mm 3 mps 737 mmHg 87%
    02:00 +20°C° 0.1 mm 3 mps 737 mmHg 88%
    03:00 +20°C° 0.1 mm 3 mps 738 mmHg 89%
    04:00 +19°C° 0.1 mm 3 mps 738 mmHg 90%
    05:00 +20°C° 0.1 mm 3 mps 738 mmHg 90%
    06:00 +20°C° 0.1 mm 3 mps 738 mmHg 89%
    07:00 +20°C° 0.1 mm 3 mps 739 mmHg 89%
    08:00 +20°C° 0.2 mm 3 mps 739 mmHg 86%
    09:00 +21°C° 0.2 mm 3 mps 739 mmHg 83%
    10:00 +23°C° 0.2 mm 2 mps 739 mmHg 80%
    11:00 +24°C° 0.3 mm 2 mps 739 mmHg 75%
    12:00 +25°C° 0.3 mm 2 mps 739 mmHg 70%
    13:00 +26°C° 0.3 mm 2 mps 739 mmHg 65%
    14:00 +26°C° 0.4 mm 2 mps 739 mmHg 66%
    15:00 +26°C° 0.4 mm 2 mps 739 mmHg 67%
    16:00 +26°C° 0.4 mm 2 mps 738 mmHg 69%
    17:00 +25°C° 0.4 mm 2 mps 739 mmHg 75%
    18:00 +23°C° 0.4 mm 2 mps 739 mmHg 82%
    19:00 +22°C° 0.4 mm 1 mps 739 mmHg 89%
    20:00 +21°C° 0 mm 1 mps 739 mmHg 90%
    21:00 +20°C° 0 mm 1 mps 740 mmHg 92%
    22:00 +20°C° 0 mm 1 mps 740 mmHg 93%
    23:00 +20°C° 0 mm 1 mps 740 mmHg 94%

    19 August, Sunday

    Time Temperature Precipitation Wind Pressure Humidity
    00:00 +19°C° 0 mm 1 mps 740 mmHg 94%
    01:00 +19°C° 0 mm 1 mps 740 mmHg 94%
    02:00 +19°C° 0 mm 1 mps 740 mmHg 94%
    03:00 +19°C° 0 mm 1 mps 740 mmHg 94%
    04:00 +19°C° 0 mm 1 mps 740 mmHg 94%
    05:00 +19°C° 0 mm 1 mps 740 mmHg 92%
    06:00 +20°C° 0 mm 1 mps 740 mmHg 90%
    07:00 +21°C° 0 mm 1 mps 741 mmHg 87%
    08:00 +22°C° 0 mm 1 mps 741 mmHg 79%
    09:00 +24°C° 0 mm 1 mps 741 mmHg 70%
    10:00 +26°C° 0 mm 1 mps 741 mmHg 62%
    11:00 +27°C° 0 mm 2 mps 740 mmHg 58%
    12:00 +27°C° 0 mm 2 mps 740 mmHg 54%
    13:00 +28°C° 0 mm 2 mps 740 mmHg 50%
    14:00 +28°C° 0 mm 2 mps 740 mmHg 50%
    15:00 +28°C° 0 mm 2 mps 739 mmHg 50%
    16:00 +28°C° 0 mm 2 mps 739 mmHg 50%
    17:00 +26°C° 0 mm 2 mps 739 mmHg 57%
    18:00 +24°C° 0 mm 2 mps 739 mmHg 64%
    19:00 +22°C° 0 mm 1 mps 739 mmHg 71%
    20:00 +22°C° 0 mm 1 mps 740 mmHg 74%
    21:00 +21°C° 0 mm 1 mps 740 mmHg 76%
    22:00 +20°C° 0 mm 1 mps 740 mmHg 78%
    23:00 +19°C° 0 mm 1 mps 740 mmHg 79%
    Show more